SWR03 ESPA-HKJK

Flight info

Callsign SWR03
Flight time N/A
Altitude 330
Route VERAG DCT PETOT DCT LUTAL DCT ERIVA/N0475F350 DCT SOGBI/K0883F350 DCT DIBON DCT BUKOV/N0483F350 DCT ADORU UL606 EKI UN618 DUGLA UN129 PIROX/N0478F360 DCT PAXIS/N0478F350 Y707 OBRAN P557 MEVDA/N0485F370 P557 NUBAR P309 AVONO/N0482F380 UA727 ANTAX/N0481F370 UA727 KAMAS
Aircraft B77W/H-SDE1E2E3FGHIJ2J3J4J5M1RWXYZ/S

Departure

Time 2026-05-01 10:32
Airport Luleå Airport (ESPA)

Arrival

Time N/A
Airport Jomo Kenyatta International Airport (HKJK)
Time Latitude Longitude Altitude Speed Heading
2026-05-01 10:12 65.54901 22.12158 79 ft 0 kts 45°
2026-05-01 10:21 65.54888 22.12128 79 ft 3 kts 45°
2026-05-01 10:21 65.54875 22.12095 79 ft 3 kts 45°
2026-05-01 10:22 65.54853 22.12042 79 ft 0 kts 45°
2026-05-01 10:23 65.54856 22.12057 79 ft 1 kts 75°
2026-05-01 10:23 65.54855 22.12070 79 ft 1 kts 99°
2026-05-01 10:24 65.54843 22.12101 79 ft 0 kts 147°
2026-05-01 10:24 65.54805 22.12151 79 ft 5 kts 166°
2026-05-01 10:25 65.54748 22.12092 79 ft 5 kts 224°
2026-05-01 10:25 65.54644 22.12212 79 ft 13 kts 137°
2026-05-01 10:26 65.54577 22.12362 79 ft 13 kts 137°
2026-05-01 10:26 65.54509 22.12515 79 ft 13 kts 137°
2026-05-01 10:26 65.54372 22.12816 79 ft 13 kts 137°
2026-05-01 10:27 65.54247 22.13097 79 ft 12 kts 136°
2026-05-01 10:27 65.54130 22.13361 79 ft 11 kts 137°
2026-05-01 10:28 65.54075 22.13482 79 ft 10 kts 137°
2026-05-01 10:28 65.53973 22.13711 79 ft 10 kts 137°
2026-05-01 10:28 65.53924 22.13819 79 ft 10 kts 138°
2026-05-01 10:29 65.53729 22.14255 79 ft 20 kts 137°
2026-05-01 10:29 65.53626 22.14482 79 ft 20 kts 137°
2026-05-01 10:30 65.53449 22.14846 79 ft 10 kts 161°
2026-05-01 10:30 65.53330 22.14767 79 ft 9 kts 223°
2026-05-01 10:31 65.53319 22.14539 79 ft 8 kts 319°
2026-05-01 10:31 65.53745 22.13591 79 ft 102 kts 318°
2026-05-01 10:32 65.55322 22.10151 476 ft 175 kts 317°
2026-05-01 10:32 65.56227 22.08162 1208 ft 177 kts 314°
2026-05-01 10:32 65.56661 22.02830 2483 ft 175 kts 249°
2026-05-01 10:33 65.54425 22.00289 3435 ft 197 kts 195°
2026-05-01 10:33 65.51522 22.00135 4062 ft 223 kts 188°
2026-05-01 10:34 65.49897 22.00078 4258 ft 245 kts 187°
2026-05-01 10:34 65.48119 22.00023 4534 ft 263 kts 186°
2026-05-01 10:34 65.46256 21.99960 5032 ft 272 kts 186°
2026-05-01 10:35 65.42399 21.99817 6396 ft 277 kts 186°
2026-05-01 10:35 65.40459 21.99748 7030 ft 281 kts 186°
2026-05-01 10:35 65.38485 21.99677 7639 ft 286 kts 186°
2026-05-01 10:35 65.36477 21.99603 8247 ft 290 kts 186°
2026-05-01 10:36 65.32385 21.99452 9489 ft 296 kts 187°
2026-05-01 10:36 65.30324 21.99376 10177 ft 296 kts 187°
2026-05-01 10:36 65.28240 21.99299 10685 ft 305 kts 187°
2026-05-01 10:37 65.26059 21.99219 11018 ft 321 kts 187°
2026-05-01 10:37 65.21352 21.99046 11663 ft 356 kts 187°
2026-05-01 10:37 65.18828 21.98953 12118 ft 369 kts 187°
2026-05-01 10:38 65.16228 21.98857 12704 ft 378 kts 187°
2026-05-01 10:38 65.13569 21.98768 13347 ft 386 kts 186°
2026-05-01 10:38 65.10851 21.98949 14019 ft 395 kts 183°
2026-05-01 10:38 65.08090 21.99436 14692 ft 402 kts 181°
2026-05-01 10:39 65.05296 22.00113 15409 ft 406 kts 180°
2026-05-01 10:39 65.02464 22.00896 16005 ft 413 kts 180°
2026-05-01 10:39 64.99599 22.01699 16691 ft 416 kts 180°
2026-05-01 10:39 64.96701 22.02481 17302 ft 421 kts 180°
2026-05-01 10:40 64.93813 22.03233 17906 ft 425 kts 181°
2026-05-01 10:40 64.90856 22.03982 18517 ft 429 kts 181°
2026-05-01 10:40 64.87869 22.04725 19071 ft 434 kts 181°
2026-05-01 10:40 64.84852 22.05467 19670 ft 438 kts 181°
2026-05-01 10:41 64.81811 22.06208 20241 ft 441 kts 181°
2026-05-01 10:41 64.78738 22.06953 20746 ft 446 kts 181°
2026-05-01 10:41 64.72509 22.08494 21805 ft 454 kts 181°
2026-05-01 10:42 64.69362 22.09265 22336 ft 457 kts 181°
2026-05-01 10:42 64.66183 22.10037 22773 ft 462 kts 181°
2026-05-01 10:42 64.62976 22.10811 23272 ft 465 kts 181°
2026-05-01 10:42 64.59747 22.11587 23752 ft 468 kts 181°
2026-05-01 10:43 64.56496 22.12365 24220 ft 471 kts 181°
2026-05-01 10:43 64.53221 22.13147 24644 ft 475 kts 181°
2026-05-01 10:43 64.49927 22.13930 25122 ft 477 kts 181°
2026-05-01 10:43 64.46624 22.14713 25571 ft 480 kts 180°
2026-05-01 10:44 64.43285 22.15503 25996 ft 482 kts 180°
2026-05-01 10:44 64.39939 22.16293 26425 ft 485 kts 180°
2026-05-01 10:44 64.36575 22.17084 26842 ft 487 kts 180°
2026-05-01 10:44 64.33194 22.17878 27200 ft 491 kts 180°
2026-05-01 10:45 64.29788 22.18676 27601 ft 493 kts 180°
2026-05-01 10:45 64.26370 22.19474 27983 ft 495 kts 180°
2026-05-01 10:45 64.22935 22.20275 28384 ft 496 kts 180°
2026-05-01 10:45 64.19489 22.21077 28687 ft 500 kts 180°
2026-05-01 10:46 64.16014 22.21882 29027 ft 502 kts 180°
2026-05-01 10:46 64.12536 22.22685 29369 ft 504 kts 179°
2026-05-01 10:46 64.09041 22.23492 29713 ft 505 kts 179°
2026-05-01 10:46 64.05555 22.24294 30196 ft 503 kts 179°
2026-05-01 10:47 64.02078 22.25092 30645 ft 501 kts 179°
2026-05-01 10:47 63.98615 22.25886 31037 ft 500 kts 179°
2026-05-01 10:47 63.95150 22.26676 31407 ft 500 kts 179°
2026-05-01 10:47 63.91693 22.27464 31780 ft 499 kts 179°
2026-05-01 10:48 63.88244 22.28248 32151 ft 498 kts 179°
2026-05-01 10:48 63.84794 22.29030 32478 ft 498 kts 179°
2026-05-01 10:48 63.81349 22.29808 32822 ft 497 kts 179°
2026-05-01 10:48 63.77911 22.30584 33057 ft 498 kts 179°
2026-05-01 10:49 63.74513 22.31348 33087 ft 497 kts 179°
2026-05-01 10:49 63.67642 22.32889 33089 ft 495 kts 179°
2026-05-01 10:50 63.60782 22.34420 33093 ft 496 kts 179°
2026-05-01 10:50 63.53909 22.35946 33096 ft 496 kts 179°
2026-05-01 10:51 63.47037 22.37464 33101 ft 496 kts 179°
2026-05-01 10:51 63.40169 22.38974 33106 ft 496 kts 179°
2026-05-01 10:52 63.33296 22.40479 33110 ft 496 kts 179°
2026-05-01 10:52 63.26419 22.41976 33116 ft 496 kts 179°
2026-05-01 10:53 63.19538 22.43468 33119 ft 497 kts 179°
2026-05-01 10:53 63.12658 22.44952 33122 ft 497 kts 179°
2026-05-01 10:54 63.05769 22.46431 33123 ft 498 kts 179°
2026-05-01 10:54 62.98876 22.47904 33125 ft 498 kts 179°
2026-05-01 10:55 62.91976 22.49371 33123 ft 498 kts 179°
2026-05-01 10:55 62.85069 22.50833 33120 ft 499 kts 179°
2026-05-01 10:56 62.78211 22.52278 33117 ft 499 kts 179°
2026-05-01 10:56 62.71293 22.53729 33115 ft 499 kts 179°
2026-05-01 10:57 62.64373 22.55173 33115 ft 500 kts 179°
2026-05-01 10:57 62.57450 22.56611 33115 ft 500 kts 179°
2026-05-01 10:58 62.50524 22.58043 33117 ft 500 kts 179°
2026-05-01 10:58 62.43593 22.59469 33120 ft 500 kts 179°
2026-05-01 10:59 62.36660 22.60890 33122 ft 500 kts 179°
2026-05-01 10:59 62.29725 22.62303 33126 ft 501 kts 179°
2026-05-01 11:00 62.22783 22.63713 33131 ft 501 kts 179°
2026-05-01 11:00 62.15843 22.65114 33133 ft 501 kts 179°
2026-05-01 11:01 62.08904 22.66509 33137 ft 501 kts 179°
2026-05-01 11:01 62.01962 22.67899 33140 ft 501 kts 179°
2026-05-01 11:02 61.96193 22.69047 33143 ft 502 kts 179°
2026-05-01 11:02 61.89208 22.70434 33145 ft 505 kts 179°
2026-05-01 11:03 61.82212 22.71817 33147 ft 505 kts 179°
2026-05-01 11:03 61.75215 22.73193 33150 ft 505 kts 179°
2026-05-01 11:04 61.68215 22.74563 33150 ft 505 kts 178°
2026-05-01 11:04 61.61218 22.75927 33150 ft 505 kts 178°
2026-05-01 11:05 61.54219 22.77285 33151 ft 505 kts 178°
2026-05-01 11:05 61.47213 22.78638 33150 ft 506 kts 178°
2026-05-01 11:06 61.40196 22.79987 33152 ft 506 kts 178°
2026-05-01 11:06 61.33180 22.81330 33156 ft 507 kts 178°
2026-05-01 11:07 61.22650 22.83335 33156 ft 507 kts 178°
2026-05-01 11:07 61.15620 22.84665 33154 ft 507 kts 178°
2026-05-01 11:08 61.08591 22.85988 33156 ft 508 kts 178°
2026-05-01 11:09 60.98076 22.87959 33160 ft 508 kts 178°
2026-05-01 11:09 60.91035 22.89271 33163 ft 508 kts 178°
2026-05-01 11:10 60.80468 22.91229 33167 ft 509 kts 178°
2026-05-01 11:10 60.73416 22.92528 33168 ft 509 kts 178°
2026-05-01 11:11 60.66355 22.93823 33169 ft 510 kts 178°
2026-05-01 11:11 60.59294 22.95113 33170 ft 509 kts 177°
2026-05-01 11:12 60.52234 22.96397 33171 ft 509 kts 177°
2026-05-01 11:12 60.45172 22.97676 33173 ft 510 kts 177°
2026-05-01 11:13 60.38110 22.98949 33175 ft 510 kts 177°
2026-05-01 11:13 60.31039 23.00219 33176 ft 510 kts 177°
2026-05-01 11:14 60.23964 23.01483 33179 ft 510 kts 177°
2026-05-01 11:14 60.16887 23.02742 33181 ft 510 kts 177°
2026-05-01 11:15 60.09815 23.03995 33186 ft 511 kts 177°
2026-05-01 11:15 60.02738 23.05244 33190 ft 511 kts 177°
2026-05-01 11:16 59.95655 23.06486 33194 ft 512 kts 176°
2026-05-01 11:16 59.88539 23.07733 33198 ft 514 kts 176°
2026-05-01 11:17 59.81414 23.08980 33203 ft 514 kts 176°
2026-05-01 11:17 59.74293 23.10223 33207 ft 513 kts 176°
2026-05-01 11:18 59.67175 23.11448 33212 ft 513 kts 176°
2026-05-01 11:18 59.60057 23.12667 33215 ft 514 kts 176°
2026-05-01 11:19 59.52938 23.13908 33217 ft 514 kts 174°
2026-05-01 11:19 59.45940 23.16359 33222 ft 514 kts 167°
2026-05-01 11:20 59.39008 23.19892 33221 ft 515 kts 165°
2026-05-01 11:20 59.32094 23.23559 33223 ft 515 kts 165°
2026-05-01 11:21 59.25101 23.27080 33225 ft 516 kts 166°
2026-05-01 11:21 59.18184 23.30493 33230 ft 516 kts 166°
2026-05-01 11:22 59.11182 23.33992 33228 ft 516 kts 166°
2026-05-01 11:22 59.04269 23.37403 33231 ft 516 kts 166°
2026-05-01 11:23 58.97312 23.40805 33231 ft 516 kts 166°
2026-05-01 11:23 58.90338 23.44196 33450 ft 518 kts 165°
2026-05-01 11:24 58.86844 23.45888 33810 ft 516 kts 165°
2026-05-01 11:24 58.83364 23.47570 34186 ft 514 kts 165°
2026-05-01 11:24 58.76435 23.50910 34743 ft 514 kts 165°
2026-05-01 11:25 58.72964 23.52577 35027 ft 513 kts 165°
2026-05-01 11:25 58.66017 23.55905 35251 ft 515 kts 165°
2026-05-01 11:25 58.62537 23.57566 35244 ft 515 kts 165°
2026-05-01 11:26 58.52124 23.62518 35249 ft 514 kts 165°
2026-05-01 11:27 58.45181 23.65802 35250 ft 514 kts 165°
2026-05-01 11:27 58.38226 23.69079 35242 ft 515 kts 165°
2026-05-01 11:28 58.31272 23.72343 35240 ft 515 kts 165°
2026-05-01 11:28 58.24311 23.75596 35240 ft 515 kts 165°
2026-05-01 11:29 58.13873 23.80487 35238 ft 515 kts 165°
2026-05-01 11:30 58.03414 23.85305 35247 ft 516 kts 165°
2026-05-01 11:30 57.96434 23.88503 35248 ft 516 kts 165°
2026-05-01 11:31 57.89455 23.91696 35252 ft 516 kts 165°
2026-05-01 11:31 57.82507 23.95043 35255 ft 516 kts 163°
2026-05-01 11:32 57.75559 23.98420 35259 ft 516 kts 164°
2026-05-01 11:32 57.68653 24.01744 35264 ft 516 kts 164°
2026-05-01 11:33 57.61649 24.05096 35267 ft 516 kts 164°
2026-05-01 11:33 57.54732 24.08408 35271 ft 516 kts 163°
2026-05-01 11:34 57.47778 24.11773 35275 ft 517 kts 163°
2026-05-01 11:34 57.40810 24.15100 35278 ft 517 kts 163°
2026-05-01 11:35 57.33843 24.18403 35280 ft 517 kts 163°
2026-05-01 11:35 57.26864 24.21696 35283 ft 518 kts 163°
2026-05-01 11:36 57.19878 24.24980 35285 ft 518 kts 163°
2026-05-01 11:36 57.12884 24.28253 35286 ft 519 kts 163°
2026-05-01 11:37 57.05876 24.31521 35287 ft 520 kts 163°
2026-05-01 11:37 56.98870 24.34775 35287 ft 519 kts 163°
2026-05-01 11:38 56.91855 24.38020 35288 ft 520 kts 163°
2026-05-01 11:38 56.84845 24.41251 35289 ft 520 kts 163°
2026-05-01 11:39 56.77824 24.44475 35289 ft 520 kts 163°
2026-05-01 11:39 56.70805 24.47685 35291 ft 521 kts 163°
2026-05-01 11:40 56.63775 24.50916 35290 ft 521 kts 163°
2026-05-01 11:40 56.56744 24.54109 35291 ft 521 kts 163°
2026-05-01 11:41 56.49704 24.57279 35292 ft 521 kts 163°
2026-05-01 11:41 56.42663 24.60439 35293 ft 521 kts 163°
2026-05-01 11:42 56.35613 24.63539 35294 ft 522 kts 165°
2026-05-01 11:42 56.28444 24.65740 35296 ft 524 kts 169°
2026-05-01 11:43 56.21211 24.67486 35297 ft 525 kts 169°
2026-05-01 11:43 56.13978 24.69351 35300 ft 525 kts 169°
2026-05-01 11:44 56.03147 24.72259 35300 ft 524 kts 168°
2026-05-01 11:44 55.95983 24.74225 35303 ft 524 kts 168°
2026-05-01 11:45 55.88763 24.76191 35301 ft 526 kts 168°
2026-05-01 11:45 55.81477 24.78159 35303 ft 526 kts 168°
2026-05-01 11:46 55.74248 24.80104 35311 ft 525 kts 168°
2026-05-01 11:46 55.67069 24.82027 35311 ft 526 kts 168°
2026-05-01 11:47 55.59830 24.83958 35314 ft 526 kts 168°
2026-05-01 11:47 55.52594 24.85881 35313 ft 526 kts 168°
2026-05-01 11:48 55.45353 24.87798 35310 ft 526 kts 168°
2026-05-01 11:48 55.38118 24.89707 35311 ft 526 kts 168°
2026-05-01 11:49 55.30875 24.91611 35313 ft 526 kts 168°
2026-05-01 11:49 55.24806 24.93200 35314 ft 526 kts 168°
2026-05-01 11:50 55.17559 24.95092 35315 ft 527 kts 168°
2026-05-01 11:50 55.10312 24.96977 35315 ft 527 kts 168°
2026-05-01 11:51 55.03064 24.98856 35316 ft 527 kts 168°
2026-05-01 11:51 54.95808 25.00730 35317 ft 527 kts 168°
2026-05-01 11:52 54.88595 25.02585 35318 ft 527 kts 168°
2026-05-01 11:52 54.81287 25.04459 35319 ft 527 kts 167°
2026-05-01 11:53 54.74073 25.06301 35319 ft 528 kts 167°
2026-05-01 11:53 54.66809 25.08150 35319 ft 528 kts 167°
2026-05-01 11:54 54.59541 25.09993 35319 ft 528 kts 167°
2026-05-01 11:54 54.52257 25.11837 35319 ft 529 kts 167°
2026-05-01 11:55 54.44983 25.13682 35319 ft 528 kts 167°
2026-05-01 11:55 54.37700 25.15505 35322 ft 529 kts 167°
2026-05-01 11:56 54.30421 25.17317 35320 ft 529 kts 167°
2026-05-01 11:56 54.23141 25.19127 35321 ft 528 kts 167°
2026-05-01 11:57 54.15929 25.21450 35323 ft 526 kts 162°
2026-05-01 11:57 54.08841 25.24556 35323 ft 526 kts 160°
2026-05-01 11:58 54.01765 25.27677 35324 ft 525 kts 161°
2026-05-01 11:59 53.91125 25.32145 35326 ft 525 kts 161°
2026-05-01 11:59 53.84027 25.35111 35327 ft 525 kts 160°
2026-05-01 12:00 53.73372 25.39547 35328 ft 526 kts 161°
2026-05-01 12:01 53.62708 25.43934 35328 ft 526 kts 161°
2026-05-01 12:01 53.55604 25.46842 35313 ft 526 kts 161°
2026-05-01 12:02 53.48495 25.49740 35309 ft 525 kts 161°
2026-05-01 12:02 53.41388 25.52628 35310 ft 526 kts 161°
2026-05-01 12:03 53.34323 25.55488 35309 ft 526 kts 160°
2026-05-01 12:03 53.27166 25.58376 35308 ft 526 kts 161°
2026-05-01 12:04 53.20099 25.61217 35308 ft 526 kts 161°
2026-05-01 12:04 53.12988 25.64067 35309 ft 526 kts 161°
2026-05-01 12:05 53.05872 25.66909 35308 ft 526 kts 160°
2026-05-01 12:05 52.95196 25.71155 35308 ft 526 kts 160°
2026-05-01 12:06 52.88074 25.73975 35310 ft 526 kts 160°
2026-05-01 12:06 52.80954 25.76786 35311 ft 526 kts 160°
2026-05-01 12:07 52.73841 25.79583 35322 ft 526 kts 160°
2026-05-01 12:07 52.66740 25.82369 35329 ft 523 kts 161°
2026-05-01 12:08 52.59671 25.85130 35328 ft 521 kts 161°
2026-05-01 12:08 52.52608 25.87880 35328 ft 522 kts 161°
2026-05-01 12:09 52.45539 25.90624 35328 ft 522 kts 161°
2026-05-01 12:09 52.38472 25.93358 35327 ft 522 kts 161°
2026-05-01 12:10 52.27873 25.97442 35327 ft 522 kts 160°
2026-05-01 12:11 52.17277 26.01523 35326 ft 522 kts 160°
2026-05-01 12:11 52.10207 26.04228 35320 ft 522 kts 160°
2026-05-01 12:12 52.03132 26.06912 35319 ft 522 kts 161°
2026-05-01 12:12 51.96061 26.09587 35319 ft 522 kts 161°
2026-05-01 12:13 51.88918 26.11809 35319 ft 526 kts 169°
2026-05-01 12:13 51.81571 26.12217 35320 ft 531 kts 176°
2026-05-01 12:14 51.74152 26.11758 35319 ft 535 kts 178°
2026-05-01 12:14 51.66760 26.11228 35319 ft 536 kts 178°
2026-05-01 12:15 51.59311 26.10833 35318 ft 535 kts 177°
2026-05-01 12:15 51.51873 26.10485 35319 ft 535 kts 177°
2026-05-01 12:16 51.44434 26.10148 35318 ft 534 kts 177°
2026-05-01 12:16 51.36999 26.09818 35319 ft 535 kts 177°
2026-05-01 12:17 51.29561 26.09491 35318 ft 535 kts 177°
2026-05-01 12:17 51.22121 26.09165 35324 ft 535 kts 177°
2026-05-01 12:18 51.14678 26.08841 35325 ft 535 kts 177°
2026-05-01 12:18 51.07233 26.08518 35325 ft 535 kts 177°
2026-05-01 12:19 50.99799 26.08196 35325 ft 535 kts 177°
2026-05-01 12:19 50.92359 26.07875 35325 ft 535 kts 177°
2026-05-01 12:20 50.84917 26.07555 35325 ft 535 kts 176°
2026-05-01 12:20 50.77524 26.07238 35320 ft 535 kts 176°
2026-05-01 12:21 50.70029 26.06919 35317 ft 535 kts 176°
2026-05-01 12:21 50.62631 26.06603 35319 ft 535 kts 176°
2026-05-01 12:22 50.55190 26.06287 35319 ft 535 kts 176°
2026-05-01 12:22 50.47746 26.05972 35317 ft 536 kts 176°
2026-05-01 12:23 50.40297 26.05658 35319 ft 536 kts 176°
2026-05-01 12:23 50.32839 26.05344 35319 ft 535 kts 176°
2026-05-01 12:24 50.25392 26.05032 35321 ft 535 kts 176°
2026-05-01 12:24 50.17942 26.04720 35319 ft 536 kts 176°
2026-05-01 12:25 50.06760 26.04255 35318 ft 536 kts 176°
2026-05-01 12:26 49.99290 26.03945 35319 ft 536 kts 176°
2026-05-01 12:26 49.88101 26.03483 35319 ft 536 kts 176°
2026-05-01 12:27 49.76920 26.03023 35318 ft 536 kts 176°
2026-05-01 12:28 49.65754 26.02566 35319 ft 534 kts 176°
2026-05-01 12:29 49.54619 26.02112 35319 ft 533 kts 176°
2026-05-01 12:29 49.43507 26.01662 35319 ft 532 kts 177°
2026-05-01 12:30 49.32422 26.01214 35319 ft 530 kts 177°
2026-05-01 12:31 49.25060 26.00918 35318 ft 529 kts 177°
2026-05-01 12:31 49.17765 26.00625 35319 ft 527 kts 177°
2026-05-01 12:32 49.10441 26.00333 35319 ft 526 kts 178°
2026-05-01 12:32 48.99489 25.99896 35318 ft 524 kts 178°
2026-05-01 12:33 48.92197 25.99607 35319 ft 524 kts 178°
2026-05-01 12:33 48.84911 25.99318 35319 ft 523 kts 178°
2026-05-01 12:34 48.77646 25.99032 35319 ft 522 kts 178°
2026-05-01 12:34 48.70396 25.98746 35318 ft 520 kts 178°
2026-05-01 12:35 48.63164 25.98463 35319 ft 519 kts 178°
2026-05-01 12:35 48.55950 25.98180 35319 ft 518 kts 178°
2026-05-01 12:36 48.48741 25.97899 35319 ft 518 kts 178°
2026-05-01 12:36 48.42759 25.97666 35318 ft 517 kts 178°
2026-05-01 12:37 48.35572 25.97388 35317 ft 516 kts 179°
2026-05-01 12:37 48.28402 25.97110 35320 ft 515 kts 179°
2026-05-01 12:38 48.21235 25.96831 35320 ft 515 kts 179°
2026-05-01 12:38 48.14074 25.96556 35318 ft 515 kts 179°
2026-05-01 12:39 48.06919 25.96282 35319 ft 514 kts 179°
2026-05-01 12:39 47.99771 25.96009 35320 ft 514 kts 179°
2026-05-01 12:40 47.92629 25.95891 35320 ft 513 kts 175°
2026-05-01 12:40 47.85513 25.96593 35319 ft 512 kts 172°
2026-05-01 12:41 47.78420 25.97566 35319 ft 511 kts 172°
2026-05-01 12:41 47.71327 25.98434 35319 ft 511 kts 172°
2026-05-01 12:42 47.64241 25.99241 35319 ft 511 kts 173°
2026-05-01 12:42 47.57155 26.00035 35320 ft 511 kts 173°
2026-05-01 12:43 47.50070 26.00824 35319 ft 510 kts 173°
2026-05-01 12:43 47.42996 26.01603 35319 ft 509 kts 173°
2026-05-01 12:44 47.35935 26.02377 35320 ft 508 kts 173°
2026-05-01 12:45 47.21840 26.03913 35321 ft 507 kts 174°
2026-05-01 12:45 47.14814 26.04676 35324 ft 506 kts 174°
2026-05-01 12:46 47.07795 26.05436 35324 ft 505 kts 174°
2026-05-01 12:46 47.00790 26.06193 35323 ft 504 kts 174°
2026-05-01 12:47 46.93843 26.06941 35326 ft 503 kts 174°
2026-05-01 12:47 46.86863 26.07690 35304 ft 503 kts 174°
2026-05-01 12:48 46.79890 26.08438 35306 ft 502 kts 175°
2026-05-01 12:48 46.72940 26.09180 35307 ft 500 kts 175°
2026-05-01 12:49 46.65997 26.09920 35307 ft 500 kts 175°
2026-05-01 12:49 46.59062 26.10657 35308 ft 500 kts 175°
2026-05-01 12:50 46.52135 26.11392 35308 ft 499 kts 175°
2026-05-01 12:50 46.45212 26.12124 35312 ft 498 kts 175°
2026-05-01 12:51 46.38300 26.12853 35311 ft 498 kts 175°
2026-05-01 12:52 46.27949 26.13941 35309 ft 497 kts 175°
2026-05-01 12:52 46.17608 26.15025 35308 ft 497 kts 175°
2026-05-01 12:53 46.07276 26.16103 35305 ft 496 kts 175°
2026-05-01 12:54 46.00392 26.16819 35302 ft 496 kts 175°
2026-05-01 12:54 45.90066 26.17890 35300 ft 496 kts 175°
2026-05-01 12:55 45.79738 26.18958 35299 ft 496 kts 176°
2026-05-01 12:56 45.72894 26.19662 35299 ft 496 kts 176°
2026-05-01 12:56 45.66018 26.20369 35302 ft 495 kts 176°
2026-05-01 12:57 45.59150 26.21073 35303 ft 495 kts 176°
2026-05-01 12:57 45.48843 26.22126 35305 ft 495 kts 176°
2026-05-01 12:58 45.41973 26.22826 35307 ft 495 kts 176°
2026-05-01 12:59 45.31671 26.23873 35312 ft 495 kts 176°
2026-05-01 12:59 45.21379 26.24914 35318 ft 494 kts 176°
2026-05-01 13:00 45.11099 26.25951 35325 ft 493 kts 176°
2026-05-01 13:01 45.00838 26.26982 35331 ft 492 kts 177°
2026-05-01 13:02 44.90595 26.28007 35337 ft 491 kts 177°
2026-05-01 13:07 44.15874 26.35379 35342 ft 488 kts 178°
2026-05-01 13:08 44.09100 26.36038 35340 ft 488 kts 178°
2026-05-01 13:08 44.02321 26.36696 35336 ft 488 kts 178°
2026-05-01 13:09 43.95551 26.37352 35334 ft 488 kts 178°
2026-05-01 13:09 43.88825 26.38001 35331 ft 487 kts 178°
2026-05-01 13:10 43.82064 26.38653 35328 ft 487 kts 178°
2026-05-01 13:10 43.75298 26.39304 35327 ft 487 kts 178°
2026-05-01 13:11 43.68540 26.39952 35324 ft 487 kts 178°
2026-05-01 13:11 43.61776 26.40600 35327 ft 487 kts 178°
2026-05-01 13:12 43.55020 26.41245 35327 ft 487 kts 178°
2026-05-01 13:12 43.48260 26.41890 35325 ft 487 kts 178°
2026-05-01 13:13 43.41507 26.42532 35324 ft 486 kts 178°
2026-05-01 13:13 43.34754 26.43173 35324 ft 486 kts 178°
2026-05-01 13:14 43.28010 26.43811 35324 ft 486 kts 178°
2026-05-01 13:14 43.21267 26.44448 35322 ft 486 kts 179°
2026-05-01 13:15 43.14523 26.45085 35317 ft 486 kts 179°
2026-05-01 13:15 43.07782 26.45718 35314 ft 485 kts 179°
2026-05-01 13:16 43.01045 26.46350 35314 ft 485 kts 179°
2026-05-01 13:16 42.94309 26.46981 35314 ft 485 kts 179°
2026-05-01 13:17 42.80844 26.48238 35314 ft 485 kts 179°
2026-05-01 13:18 42.70752 26.49176 35314 ft 484 kts 179°
2026-05-01 13:18 42.64032 26.49799 35314 ft 484 kts 179°
2026-05-01 13:19 42.57306 26.50422 35315 ft 484 kts 179°
2026-05-01 13:20 42.47261 26.51348 35307 ft 484 kts 179°
2026-05-01 13:20 42.40499 26.51971 35302 ft 484 kts 180°
2026-05-01 13:21 42.30462 26.52892 35299 ft 484 kts 180°
2026-05-01 13:21 42.23696 26.53511 35297 ft 484 kts 180°
2026-05-01 13:22 42.17016 26.54124 35295 ft 484 kts 180°
2026-05-01 13:22 42.10294 26.54738 35292 ft 484 kts 180°
2026-05-01 13:23 42.03572 26.55349 35289 ft 484 kts 180°
2026-05-01 13:23 41.96849 26.55958 35285 ft 484 kts 180°
2026-05-01 13:24 41.91220 26.56479 35280 ft 484 kts 179°
2026-05-01 13:25 41.81715 26.61067 35279 ft 497 kts 148°
2026-05-01 13:25 41.76254 26.66864 35274 ft 503 kts 145°
2026-05-01 13:26 41.70648 26.72511 35271 ft 504 kts 148°
2026-05-01 13:26 41.64956 26.77862 35268 ft 503 kts 149°
2026-05-01 13:27 41.59226 26.83212 35265 ft 502 kts 149°
2026-05-01 13:27 41.50641 26.91234 35260 ft 502 kts 149°
2026-05-01 13:28 41.42058 26.99273 35253 ft 503 kts 149°
2026-05-01 13:29 41.30586 27.09928 35249 ft 503 kts 149°
2026-05-01 13:31 41.13356 27.25883 35243 ft 503 kts 150°
2026-05-01 13:32 40.98956 27.39081 35229 ft 503 kts 152°
2026-05-01 13:33 40.89288 27.42926 35229 ft 481 kts 187°
2026-05-01 13:33 40.82700 27.41908 35227 ft 474 kts 193°
2026-05-01 13:34 40.69652 27.40253 35223 ft 470 kts 190°
2026-05-01 13:35 40.59842 27.39395 35220 ft 472 kts 190°
2026-05-01 13:36 40.50029 27.38501 35205 ft 471 kts 190°
2026-05-01 13:36 40.40225 27.37615 35200 ft 470 kts 191°
2026-05-01 13:37 40.33695 27.37026 35196 ft 470 kts 191°
2026-05-01 13:37 40.27171 27.36412 35192 ft 469 kts 192°
2026-05-01 13:38 40.17529 27.34544 35191 ft 466 kts 195°
2026-05-01 13:39 40.11123 27.33294 35191 ft 465 kts 195°
2026-05-01 13:39 40.04708 27.32097 35191 ft 466 kts 195°
2026-05-01 13:40 39.98291 27.30899 35188 ft 466 kts 195°
2026-05-01 13:40 39.91874 27.29707 35185 ft 466 kts 195°
2026-05-01 13:41 39.85460 27.28517 35183 ft 465 kts 195°
2026-05-01 13:41 39.79052 27.27340 35180 ft 465 kts 195°
2026-05-01 13:42 39.72624 27.26264 35178 ft 466 kts 195°
2026-05-01 13:42 39.66194 27.25186 35176 ft 466 kts 195°
2026-05-01 13:43 39.59756 27.24103 35173 ft 467 kts 195°
2026-05-01 13:43 39.53308 27.23035 35166 ft 468 kts 193°
2026-05-01 13:44 39.46743 27.23227 35171 ft 479 kts 180°
2026-05-01 13:44 39.40160 27.24943 35167 ft 486 kts 175°
2026-05-01 13:45 39.33538 27.26985 35164 ft 492 kts 175°
2026-05-01 13:45 39.26858 27.28947 35160 ft 492 kts 175°
2026-05-01 13:46 39.20181 27.30856 35156 ft 491 kts 176°
2026-05-01 13:46 39.13512 27.32753 35154 ft 491 kts 176°
2026-05-01 13:47 39.06832 27.34654 35149 ft 492 kts 176°
2026-05-01 13:47 39.00144 27.36544 35122 ft 492 kts 176°
2026-05-01 13:48 38.93457 27.38427 35106 ft 492 kts 176°
2026-05-01 13:48 38.86766 27.40306 35092 ft 493 kts 176°
2026-05-01 13:49 38.80062 27.42185 35080 ft 493 kts 176°
2026-05-01 13:49 38.73353 27.44061 35070 ft 493 kts 176°
2026-05-01 13:50 38.66642 27.45934 35058 ft 494 kts 177°
2026-05-01 13:50 38.59919 27.47807 35049 ft 494 kts 177°
2026-05-01 13:51 38.53197 27.49676 35042 ft 494 kts 177°
2026-05-01 13:51 38.46470 27.51543 35035 ft 495 kts 177°
2026-05-01 13:52 38.39732 27.53409 35029 ft 496 kts 177°
2026-05-01 13:52 38.32988 27.55273 35025 ft 496 kts 177°
2026-05-01 13:53 38.26253 27.57132 35019 ft 495 kts 177°
2026-05-01 13:53 38.16143 27.59915 35010 ft 495 kts 177°
2026-05-01 13:54 38.09397 27.61768 35006 ft 497 kts 177°
2026-05-01 13:54 38.02635 27.63621 35001 ft 497 kts 177°
2026-05-01 13:55 37.95875 27.65471 34997 ft 497 kts 177°
2026-05-01 13:55 37.89116 27.67317 34984 ft 497 kts 177°
2026-05-01 13:56 37.82361 27.69158 34975 ft 497 kts 177°
2026-05-01 13:56 37.75605 27.70996 34973 ft 497 kts 177°
2026-05-01 13:57 37.69990 27.72521 34975 ft 497 kts 177°
2026-05-01 13:57 37.62091 27.74662 34973 ft 497 kts 178°
2026-05-01 13:58 37.55331 27.76491 34972 ft 497 kts 177°
2026-05-01 13:58 37.48572 27.78316 34971 ft 498 kts 177°
2026-05-01 13:59 37.41790 27.80145 34968 ft 498 kts 177°
2026-05-01 13:59 37.35012 27.81968 34967 ft 498 kts 177°
2026-05-01 14:00 37.28237 27.83787 34966 ft 498 kts 177°
2026-05-01 14:00 37.21465 27.85603 34965 ft 498 kts 177°
2026-05-01 14:01 37.14689 27.87416 34965 ft 498 kts 177°
2026-05-01 14:01 37.07902 27.89229 34965 ft 499 kts 177°
2026-05-01 14:02 37.01107 27.91040 34965 ft 499 kts 177°
2026-05-01 14:02 36.94352 27.92838 34963 ft 500 kts 177°
2026-05-01 14:03 36.88649 27.94353 34962 ft 500 kts 177°
2026-05-01 14:03 36.80732 27.96452 34957 ft 500 kts 177°
2026-05-01 14:04 36.73913 27.98266 34948 ft 501 kts 176°
2026-05-01 14:04 36.68200 27.99775 34943 ft 501 kts 176°
2026-05-01 14:05 36.60280 28.01860 34939 ft 500 kts 176°
2026-05-01 14:05 36.53463 28.03652 34937 ft 500 kts 176°
2026-05-01 14:06 36.47804 28.04498 34934 ft 488 kts 188°
2026-05-01 14:06 36.41174 28.03422 34938 ft 477 kts 202°
2026-05-01 14:07 36.34802 28.01344 34935 ft 469 kts 204°
2026-05-01 14:08 36.25349 27.98367 34936 ft 468 kts 202°
2026-05-01 14:08 36.19006 27.96499 34940 ft 469 kts 202°
2026-05-01 14:09 36.12645 27.94642 34943 ft 470 kts 202°
2026-05-01 14:09 36.06283 27.92786 34946 ft 470 kts 202°
2026-05-01 14:10 35.99925 27.90944 34950 ft 469 kts 202°
2026-05-01 14:10 35.93562 27.89106 34955 ft 469 kts 202°
2026-05-01 14:11 35.87198 27.87273 34960 ft 470 kts 202°
2026-05-01 14:11 35.77654 27.84529 34966 ft 470 kts 202°
2026-05-01 14:12 35.71290 27.82704 34970 ft 470 kts 202°
2026-05-01 14:12 35.64923 27.80882 34972 ft 470 kts 202°
2026-05-01 14:13 35.58559 27.79062 34978 ft 470 kts 202°
2026-05-01 14:13 35.52192 27.77247 34981 ft 471 kts 202°
2026-05-01 14:14 35.45803 27.75429 34985 ft 471 kts 202°
2026-05-01 14:14 35.39419 27.73609 34986 ft 471 kts 202°
2026-05-01 14:15 35.33034 27.71795 34988 ft 471 kts 202°
2026-05-01 14:15 35.26652 27.69985 34985 ft 471 kts 202°
2026-05-01 14:16 35.20270 27.68178 34986 ft 471 kts 202°
2026-05-01 14:16 35.13881 27.66373 34986 ft 472 kts 202°
2026-05-01 14:17 35.07479 27.64566 34986 ft 473 kts 202°
2026-05-01 14:17 35.01067 27.62760 34986 ft 472 kts 202°
2026-05-01 14:18 34.94663 27.60958 34986 ft 472 kts 202°
2026-05-01 14:18 34.89297 27.59451 34985 ft 472 kts 202°
2026-05-01 14:19 34.81852 27.57364 34984 ft 472 kts 202°
2026-05-01 14:19 34.75448 27.55571 34984 ft 473 kts 201°
2026-05-01 14:20 34.65807 27.52877 34983 ft 474 kts 201°
2026-05-01 14:21 34.59380 27.51086 34983 ft 474 kts 201°
2026-05-01 14:21 34.52950 27.49295 34983 ft 474 kts 201°
2026-05-01 14:22 34.43311 27.46617 34982 ft 474 kts 201°
2026-05-01 14:22 34.36881 27.44835 34981 ft 474 kts 201°
2026-05-01 14:23 34.30452 27.43054 34980 ft 474 kts 201°
2026-05-01 14:23 34.24019 27.41270 34980 ft 474 kts 201°
2026-05-01 14:24 34.17588 27.39492 34980 ft 474 kts 201°
2026-05-01 14:24 34.11156 27.37725 34980 ft 474 kts 201°
2026-05-01 14:25 34.04722 27.35955 34979 ft 474 kts 201°
2026-05-01 14:25 33.98274 27.34253 34976 ft 478 kts 197°
2026-05-01 14:26 33.94921 27.34042 34978 ft 489 kts 186°
2026-05-01 14:26 33.88187 27.36044 34994 ft 511 kts 163°
2026-05-01 14:27 33.81778 27.39917 34977 ft 519 kts 160°
2026-05-01 14:27 33.75278 27.43770 34974 ft 522 kts 161°
2026-05-01 14:28 33.65359 27.49092 34971 ft 519 kts 163°
2026-05-01 14:28 33.58752 27.52583 34971 ft 519 kts 163°
2026-05-01 14:29 33.52135 27.56079 34972 ft 520 kts 163°
2026-05-01 14:30 33.38875 27.63044 34970 ft 520 kts 163°
2026-05-01 14:31 33.28942 27.68245 34969 ft 519 kts 163°
2026-05-01 14:31 33.22317 27.71706 34969 ft 520 kts 163°
2026-05-01 14:32 33.15722 27.75146 34968 ft 521 kts 163°
2026-05-01 14:32 33.09078 27.78606 34967 ft 521 kts 163°
2026-05-01 14:33 33.02435 27.82059 34968 ft 521 kts 163°
2026-05-01 14:33 32.95785 27.85510 34968 ft 522 kts 163°
2026-05-01 14:34 32.89128 27.88960 34967 ft 522 kts 163°
2026-05-01 14:34 32.82464 27.92409 34966 ft 522 kts 163°
2026-05-01 14:35 32.75795 27.95854 34966 ft 523 kts 163°
2026-05-01 14:35 32.69118 27.99298 34967 ft 523 kts 163°
2026-05-01 14:36 32.62449 28.02728 34966 ft 522 kts 163°
2026-05-01 14:36 32.55796 28.06152 34966 ft 521 kts 163°
2026-05-01 14:37 32.49142 28.09562 34966 ft 521 kts 163°
2026-05-01 14:37 32.42487 28.12971 34964 ft 522 kts 163°
2026-05-01 14:38 32.35809 28.16387 34964 ft 522 kts 163°
2026-05-01 14:38 32.29135 28.19796 34964 ft 522 kts 163°
2026-05-01 14:39 32.22463 28.23196 34963 ft 522 kts 163°
2026-05-01 14:39 32.15794 28.26591 34963 ft 522 kts 163°
2026-05-01 14:40 32.09125 28.29996 34964 ft 522 kts 163°
2026-05-01 14:40 32.02449 28.33379 34964 ft 522 kts 163°
2026-05-01 14:41 31.95773 28.36756 34963 ft 523 kts 163°
2026-05-01 14:41 31.89082 28.40136 34964 ft 524 kts 163°
2026-05-01 14:42 31.82388 28.43518 34964 ft 523 kts 163°
2026-05-01 14:42 31.75693 28.46880 34963 ft 523 kts 163°
2026-05-01 14:43 31.68997 28.50234 34956 ft 523 kts 163°
2026-05-01 14:43 31.62344 28.53562 34957 ft 523 kts 163°
2026-05-01 14:44 31.55598 28.56926 34959 ft 523 kts 163°
2026-05-01 14:44 31.45583 28.61895 34958 ft 524 kts 163°
2026-05-01 14:45 31.35509 28.66885 34959 ft 525 kts 163°
2026-05-01 14:46 31.28786 28.70213 34960 ft 525 kts 163°
2026-05-01 14:46 31.18708 28.75219 34961 ft 525 kts 163°
2026-05-01 14:47 31.11976 28.78545 34961 ft 525 kts 163°
2026-05-01 14:48 31.01883 28.83518 34961 ft 525 kts 163°
2026-05-01 14:48 30.91784 28.88482 34961 ft 526 kts 163°
2026-05-01 14:49 30.79432 28.94539 34959 ft 527 kts 163°
2026-05-01 14:50 30.65913 29.01160 34958 ft 527 kts 163°
2026-05-01 14:51 30.55770 29.06098 34957 ft 527 kts 163°
2026-05-01 14:52 30.48873 29.08813 34953 ft 520 kts 175°
2026-05-01 14:52 30.45311 29.09351 34954 ft 514 kts 184°
2026-05-01 14:53 30.34687 29.09119 34956 ft 505 kts 188°
2026-05-01 14:53 30.27670 29.09219 34956 ft 505 kts 187°
2026-05-01 14:54 30.20634 29.09317 34957 ft 507 kts 187°
2026-05-01 14:54 30.13567 29.09399 34956 ft 508 kts 187°
2026-05-01 14:55 30.06501 29.09480 34956 ft 507 kts 187°
2026-05-01 14:55 29.99448 29.09561 34958 ft 507 kts 187°
2026-05-01 14:56 29.92373 29.09642 34958 ft 510 kts 187°
2026-05-01 14:56 29.85252 29.09727 34962 ft 512 kts 187°
2026-05-01 14:57 29.78130 29.09806 34959 ft 511 kts 187°
2026-05-01 14:57 29.67511 29.09926 34960 ft 511 kts 187°
2026-05-01 14:58 29.60406 29.10007 34961 ft 511 kts 187°
2026-05-01 14:58 29.53288 29.10088 34962 ft 512 kts 187°
2026-05-01 14:59 29.46109 29.10167 34963 ft 513 kts 187°
2026-05-01 14:59 29.39026 29.10246 34973 ft 512 kts 187°
2026-05-01 15:00 29.28325 29.10365 34973 ft 513 kts 187°
2026-05-01 15:01 29.21194 29.10443 34975 ft 513 kts 187°
2026-05-01 15:01 29.14061 29.10522 34976 ft 513 kts 187°
2026-05-01 15:02 29.06922 29.11288 34987 ft 521 kts 175°
2026-05-01 15:02 28.99915 29.13681 34979 ft 530 kts 167°
2026-05-01 15:03 28.92941 29.16563 34979 ft 535 kts 166°
2026-05-01 15:03 28.85915 29.19383 34979 ft 535 kts 167°
2026-05-01 15:04 28.78879 29.22143 34980 ft 534 kts 167°
2026-05-01 15:04 28.71859 29.24893 34982 ft 534 kts 167°
2026-05-01 15:05 28.64832 29.27639 34984 ft 535 kts 167°
2026-05-01 15:05 28.57779 29.30381 34985 ft 536 kts 167°
2026-05-01 15:06 28.50730 29.33117 34985 ft 535 kts 167°
2026-05-01 15:06 28.43678 29.35852 34991 ft 535 kts 167°
2026-05-01 15:07 28.36623 29.38579 34988 ft 536 kts 167°
2026-05-01 15:07 28.29565 29.41305 34991 ft 537 kts 168°
2026-05-01 15:08 28.22528 29.44020 34992 ft 539 kts 168°
2026-05-01 15:08 28.15417 29.46759 34993 ft 540 kts 168°
2026-05-01 15:09 28.08314 29.49491 34995 ft 539 kts 168°
2026-05-01 15:09 28.01217 29.52218 34997 ft 539 kts 168°
2026-05-01 15:10 27.94120 29.54943 34999 ft 539 kts 168°
2026-05-01 15:10 27.83461 29.59024 35001 ft 539 kts 168°
2026-05-01 15:11 27.72811 29.63094 35004 ft 538 kts 168°
2026-05-01 15:12 27.65715 29.65801 35006 ft 538 kts 168°
2026-05-01 15:12 27.55066 29.69857 35008 ft 538 kts 168°
2026-05-01 15:14 27.37347 29.76587 35011 ft 537 kts 168°
2026-05-01 15:14 27.26719 29.80615 35012 ft 537 kts 168°
2026-05-01 15:15 27.12573 29.85959 35014 ft 536 kts 168°
2026-05-01 15:16 26.98445 29.91286 34982 ft 535 kts 168°
2026-05-01 15:18 26.80832 29.97909 34978 ft 533 kts 168°
2026-05-01 15:19 26.66730 30.03187 34974 ft 535 kts 169°
2026-05-01 15:19 26.56184 30.07071 34971 ft 534 kts 169°
2026-05-01 15:20 26.45619 30.10951 34967 ft 533 kts 169°
2026-05-01 15:21 26.38574 30.13535 34964 ft 533 kts 169°
2026-05-01 15:21 26.31527 30.16109 34988 ft 532 kts 169°
2026-05-01 15:22 26.20942 30.19844 34995 ft 532 kts 169°
2026-05-01 15:22 26.13891 30.22337 34992 ft 531 kts 169°
2026-05-01 15:23 26.06846 30.24842 34989 ft 531 kts 169°
2026-05-01 15:23 25.99797 30.27337 34986 ft 532 kts 169°
2026-05-01 15:24 25.92745 30.29824 34984 ft 532 kts 169°
2026-05-01 15:24 25.85692 30.32310 34981 ft 532 kts 169°
2026-05-01 15:25 25.78642 30.34795 34978 ft 531 kts 169°
2026-05-01 15:25 25.71606 30.37272 34974 ft 530 kts 170°
2026-05-01 15:26 25.64578 30.39738 34966 ft 530 kts 170°
2026-05-01 15:26 25.57587 30.42187 34871 ft 531 kts 169°
2026-05-01 15:27 25.50555 30.44649 34858 ft 529 kts 170°
2026-05-01 15:28 25.40041 30.48339 34860 ft 528 kts 170°
2026-05-01 15:28 25.33027 30.50781 34861 ft 528 kts 170°
2026-05-01 15:29 25.22506 30.54429 34860 ft 528 kts 170°
2026-05-01 15:30 25.09669 30.58874 34866 ft 527 kts 170°
2026-05-01 15:31 24.87502 30.66543 34863 ft 526 kts 170°
2026-05-01 15:32 24.73545 30.71356 34865 ft 526 kts 170°
2026-05-01 15:34 24.52600 30.78556 34866 ft 526 kts 170°